This is the latest recevied weather packets stored in our database for station/object W7TJC. If no packets are shown the sender has not sent any weather packets the latest 10 day(s).
| Time | Temp. | Humidity | Pressure | Rain* | Wind** | Luminosity | Snow |
|---|---|---|---|---|---|---|---|
| 1777774937 | 21.11° C | 47% | 1013.9 hPa | 0 mm | - | 6 W/m² | - |
| 1777774634 | 21.67° C | 46% | 1014 hPa | 0 mm | - | 6 W/m² | - |
| 1777774330 | 21.67° C | 47% | 1013.8 hPa | 0 mm | - | 7 W/m² | - |
| 1777774028 | 21.67° C | 47% | 1014.1 hPa | 0 mm | - | 8 W/m² | - |
| 1777773725 | 21.67° C | 47% | 1014 hPa | 0 mm | - | 10 W/m² | - |
| 1777773422 | 21.67° C | 49% | 1014.1 hPa | 0 mm | - | 9 W/m² | - |
| 1777773119 | 21.67° C | 49% | 1014 hPa | 0 mm | - | 9 W/m² | - |
| 1777772814 | 21.67° C | 51% | 1014.1 hPa | 0 mm | - | 10 W/m² | - |
| 1777772513 | 21.67° C | 51% | 1014 hPa | 0 mm | - | 29 W/m² | - |
| 1777772209 | 21.67° C | 52% | 1014.1 hPa | 0 mm | - | 10 W/m² | - |
| 1777771907 | 21.11° C | 53% | 1014.3 hPa | 0 mm | - | 26 W/m² | - |
| 1777771604 | 21.11° C | 52% | 1014 hPa | 0 mm | - | 11 W/m² | - |
| 1777771301 | 21.67° C | 53% | 1014.2 hPa | 0 mm | - | 12 W/m² | - |
| 1777770997 | 21.67° C | 53% | 1014.3 hPa | 0 mm | - | 19 W/m² | - |
| 1777770695 | 21.67° C | 52% | 1014.1 hPa | 0 mm | - | 14 W/m² | - |
| 1777770391 | 22.22° C | 52% | 1014.1 hPa | 0 mm | - | 12 W/m² | - |
| 1777770088 | 22.22° C | 50% | 1014.2 hPa | 0 mm | - | 12 W/m² | - |
| 1777769785 | 22.22° C | 52% | 1014.2 hPa | 0 mm | - | 15 W/m² | - |
| 1777769483 | 22.22° C | 50% | 1014 hPa | 0 mm | - | 12 W/m² | - |
| 1777769178 | 22.78° C | 49% | 1014.1 hPa | 0 mm | - | 14 W/m² | - |
| 1777768877 | 22.78° C | 49% | 1014.1 hPa | 0 mm | - | 14 W/m² | - |
| 1777768574 | 22.78° C | 47% | 1014.2 hPa | 0 mm | - | 14 W/m² | - |
| 1777768271 | 22.78° C | 46% | 1014.1 hPa | 0 mm | - | 14 W/m² | - |
| 1777767968 | 22.78° C | 46% | 1014.3 hPa | 0 mm | - | 15 W/m² | - |
| 1777767664 | 22.78° C | 46% | 1014.3 hPa | 0 mm | - | 16 W/m² | - |
* Rain latest hour (hover to see other rain measurements)
** Current wind speed in m/s (hover to see current wind gust speed)